Location: Courçay
(47.2523°N, 0.8761°E)
Time: 06:50:46
(UTC+00:00)

Cosmos 2278 Rocket - Pass Details

Date: 18 November 2025
Orbit: 841 x 843 km, 71.0° (Epoch: 06 December)

Event Time Altitude Azimuth Distance (km) Brightness Sun altitude
Rises 19:20:06 0° 252° (WSW) 3,393 6.3 -30.7°
Reaches altitude 10° 19:23:09 10° 268° (W) 2,461 5.5 -31.2°
Maximum altitude 19:27:22 21° 317° (NW) 1,804 4.3 -31.9°
Enters shadow 19:30:22 14° 355° (N) 2,165 4.4 -32.4°
